Year,Month,Day,Hour,Minute,Value (Times are PST for temperature in C)
2008,05,16,00,00,10.20
2008,05,16,00,01,10.20
2008,05,16,00,02,10.20
2008,05,16,00,03,10.10
2008,05,16,00,04,10.10
2008,05,16,00,05,10.10
2008,05,16,00,06,10.00
2008,05,16,00,07,10.00
2008,05,16,00,08,10.00
2008,05,16,00,09,9.90
2008,05,16,00,10,9.90
2008,05,16,00,11,9.90
2008,05,16,00,12,9.90
2008,05,16,00,13,9.90
2008,05,16,00,14,9.80
2008,05,16,00,15,9.80
2008,05,16,00,16,9.80
2008,05,16,00,17,9.80
2008,05,16,00,18,9.80
2008,05,16,00,19,9.80
2008,05,16,00,20,9.80
2008,05,16,00,21,9.80
2008,05,16,00,22,9.80
2008,05,16,00,23,9.80
2008,05,16,00,24,9.80
2008,05,16,00,25,9.80
2008,05,16,00,26,9.80
2008,05,16,00,27,9.80
2008,05,16,00,28,9.80
2008,05,16,00,29,9.80
2008,05,16,00,30,9.80
2008,05,16,00,31,9.80
2008,05,16,00,32,9.80
2008,05,16,00,33,9.80
2008,05,16,00,34,9.80
2008,05,16,00,35,9.80
2008,05,16,00,36,9.70
2008,05,16,00,37,9.70
2008,05,16,00,38,9.70
2008,05,16,00,39,9.70
2008,05,16,00,40,9.70
2008,05,16,00,41,9.70
2008,05,16,00,42,9.70
2008,05,16,00,43,9.70
2008,05,16,00,44,9.70
2008,05,16,00,45,9.70
2008,05,16,00,46,9.70
2008,05,16,00,47,9.60
2008,05,16,00,48,9.60
2008,05,16,00,49,9.50
2008,05,16,00,50,9.40
2008,05,16,00,51,9.40
2008,05,16,00,52,9.30
2008,05,16,00,53,9.30
2008,05,16,00,54,9.20
2008,05,16,00,55,9.20
2008,05,16,00,56,9.20
2008,05,16,00,57,9.20
2008,05,16,00,58,9.20
2008,05,16,00,59,9.20
2008,05,16,01,00,9.20
2008,05,16,01,01,9.20
2008,05,16,01,02,9.20
2008,05,16,01,03,9.20
2008,05,16,01,04,9.20
2008,05,16,01,05,9.20
2008,05,16,01,06,9.20
2008,05,16,01,07,9.20
2008,05,16,01,08,9.20
2008,05,16,01,09,9.20
2008,05,16,01,10,9.20
2008,05,16,01,11,9.20
2008,05,16,01,12,9.20
2008,05,16,01,13,9.20
2008,05,16,01,14,9.20
2008,05,16,01,15,9.20
2008,05,16,01,16,9.20
2008,05,16,01,17,9.20
2008,05,16,01,18,9.20
2008,05,16,01,19,9.10
2008,05,16,01,20,9.10
2008,05,16,01,21,9.10
2008,05,16,01,22,9.10
2008,05,16,01,23,9.10
2008,05,16,01,24,9.10
2008,05,16,01,25,9.10
2008,05,16,01,26,9.10
2008,05,16,01,27,9.10
2008,05,16,01,28,9.20
2008,05,16,01,29,9.20
2008,05,16,01,30,9.10
2008,05,16,01,31,9.10
2008,05,16,01,32,9.10
2008,05,16,01,33,9.10
2008,05,16,01,34,9.10
2008,05,16,01,35,9.00
2008,05,16,01,36,9.00
2008,05,16,01,37,8.90
2008,05,16,01,38,8.90
2008,05,16,01,39,8.80
2008,05,16,01,40,8.80
2008,05,16,01,41,8.80
2008,05,16,01,42,8.80
2008,05,16,01,43,8.70
2008,05,16,01,44,8.70
2008,05,16,01,45,8.70
2008,05,16,01,46,8.70
2008,05,16,01,47,8.60
2008,05,16,01,48,8.60
2008,05,16,01,49,8.60
2008,05,16,01,50,8.60
2008,05,16,01,51,8.60
2008,05,16,01,52,8.60
2008,05,16,01,53,8.50
2008,05,16,01,54,8.50
2008,05,16,01,55,8.50
2008,05,16,01,56,8.50
2008,05,16,01,57,8.40
2008,05,16,01,58,8.40
2008,05,16,01,59,8.40
2008,05,16,02,00,8.40
2008,05,16,02,01,8.40
2008,05,16,02,02,8.40
2008,05,16,02,03,8.30
2008,05,16,02,04,8.30
2008,05,16,02,05,8.30
2008,05,16,02,06,8.30
2008,05,16,02,07,8.20
2008,05,16,02,08,8.20
2008,05,16,02,09,8.20
2008,05,16,02,10,8.20
2008,05,16,02,11,8.20
2008,05,16,02,12,8.20
2008,05,16,02,13,8.20
2008,05,16,02,14,8.20
2008,05,16,02,15,8.20
2008,05,16,02,16,8.20
2008,05,16,02,17,8.20
2008,05,16,02,18,8.20
2008,05,16,02,19,8.20
2008,05,16,02,20,8.20
2008,05,16,02,21,8.20
2008,05,16,02,22,8.20
2008,05,16,02,23,8.20
2008,05,16,02,24,8.10
2008,05,16,02,25,8.10
2008,05,16,02,26,8.10
2008,05,16,02,27,8.10
2008,05,16,02,28,8.10
2008,05,16,02,29,8.10
2008,05,16,02,30,8.10
2008,05,16,02,31,8.10
2008,05,16,02,32,8.10
2008,05,16,02,33,8.10
2008,05,16,02,34,8.10
2008,05,16,02,35,8.10
2008,05,16,02,36,8.10
2008,05,16,02,37,8.10
2008,05,16,02,38,8.10
2008,05,16,02,39,8.20
2008,05,16,02,40,8.10
2008,05,16,02,41,8.10
2008,05,16,02,42,8.10
2008,05,16,02,43,8.10
2008,05,16,02,44,8.20
2008,05,16,02,45,8.20
2008,05,16,02,46,8.20
2008,05,16,02,47,8.20
2008,05,16,02,48,8.20
2008,05,16,02,49,8.20
2008,05,16,02,50,8.20
2008,05,16,02,51,8.20
2008,05,16,02,52,8.20
2008,05,16,02,53,8.20
2008,05,16,02,54,8.20
2008,05,16,02,55,8.20
2008,05,16,02,56,8.30
2008,05,16,02,57,8.30
2008,05,16,02,58,8.30
2008,05,16,02,59,8.30
2008,05,16,03,00,8.30
2008,05,16,03,01,8.30
2008,05,16,03,02,8.30
2008,05,16,03,03,8.30
2008,05,16,03,04,8.30
2008,05,16,03,05,8.30
2008,05,16,03,06,8.20
2008,05,16,03,07,8.20
2008,05,16,03,08,8.20
2008,05,16,03,09,8.10
2008,05,16,03,10,8.10
2008,05,16,03,11,8.00
2008,05,16,03,12,8.00
2008,05,16,03,13,7.90
2008,05,16,03,14,7.90
2008,05,16,03,15,7.90
2008,05,16,03,16,7.90
2008,05,16,03,17,7.90
2008,05,16,03,18,7.90
2008,05,16,03,19,7.90
2008,05,16,03,20,7.90
2008,05,16,03,21,7.90
2008,05,16,03,22,7.90
2008,05,16,03,23,7.90
2008,05,16,03,24,8.00
2008,05,16,03,25,8.00
2008,05,16,03,26,8.10
2008,05,16,03,27,8.10
2008,05,16,03,28,8.20
2008,05,16,03,29,8.20
2008,05,16,03,30,8.20
2008,05,16,03,31,8.20
2008,05,16,03,32,8.20
2008,05,16,03,33,8.20
2008,05,16,03,34,8.20
2008,05,16,03,35,8.10
2008,05,16,03,36,8.10
2008,05,16,03,37,8.10
2008,05,16,03,38,8.10
2008,05,16,03,39,8.00
2008,05,16,03,40,7.90
2008,05,16,03,41,7.90
2008,05,16,03,42,7.90
2008,05,16,03,43,7.90
2008,05,16,03,44,7.80
2008,05,16,03,45,7.80
2008,05,16,03,46,7.80
2008,05,16,03,47,7.80
2008,05,16,03,48,7.70
2008,05,16,03,49,7.70
2008,05,16,03,50,7.70
2008,05,16,03,51,7.70
2008,05,16,03,52,7.60
2008,05,16,03,53,7.60
2008,05,16,03,54,7.60
2008,05,16,03,55,7.60
2008,05,16,03,56,7.60
2008,05,16,03,57,7.60
2008,05,16,03,58,7.60
2008,05,16,03,59,7.60
2008,05,16,04,00,7.60
2008,05,16,04,01,7.60
2008,05,16,04,02,7.60
2008,05,16,04,03,7.60
2008,05,16,04,04,7.60
2008,05,16,04,05,7.60
2008,05,16,04,06,7.60
2008,05,16,04,07,7.60
2008,05,16,04,08,7.50
2008,05,16,04,09,7.50
2008,05,16,04,10,7.50
2008,05,16,04,11,7.50
2008,05,16,04,12,7.50
2008,05,16,04,13,7.50
2008,05,16,04,14,7.50
2008,05,16,04,15,7.50
2008,05,16,04,16,7.60
2008,05,16,04,17,7.60
2008,05,16,04,18,7.60
2008,05,16,04,19,7.60
2008,05,16,04,20,7.60
2008,05,16,04,21,7.60
2008,05,16,04,22,7.60
2008,05,16,04,23,7.50
2008,05,16,04,24,7.50
2008,05,16,04,25,7.50
2008,05,16,04,26,7.40
2008,05,16,04,27,7.40
2008,05,16,04,28,7.40
2008,05,16,04,29,7.40
2008,05,16,04,30,7.40
2008,05,16,04,31,7.40
2008,05,16,04,32,7.40
2008,05,16,04,33,7.40
2008,05,16,04,34,7.40
2008,05,16,04,35,7.50
2008,05,16,04,36,7.50
2008,05,16,04,37,7.50
2008,05,16,04,38,7.50
2008,05,16,04,39,7.50
2008,05,16,04,40,7.50
2008,05,16,04,41,7.60
2008,05,16,04,42,7.60
2008,05,16,04,43,7.60
2008,05,16,04,44,7.70
2008,05,16,04,45,7.70
2008,05,16,04,46,7.60
2008,05,16,04,47,7.60
2008,05,16,04,48,7.60
2008,05,16,04,49,7.60
2008,05,16,04,50,7.60
2008,05,16,04,51,7.60
2008,05,16,04,52,7.60
2008,05,16,04,53,7.60
2008,05,16,04,54,7.60
2008,05,16,04,55,7.60
2008,05,16,04,56,7.60
2008,05,16,04,57,7.60
2008,05,16,04,58,7.60
2008,05,16,04,59,7.60
2008,05,16,05,00,7.50
2008,05,16,05,01,7.40
2008,05,16,05,02,7.40
2008,05,16,05,03,7.40
2008,05,16,05,04,7.30
2008,05,16,05,05,7.30
2008,05,16,05,06,7.30
2008,05,16,05,07,7.30
2008,05,16,05,08,7.30
2008,05,16,05,09,7.30
2008,05,16,05,10,7.30
2008,05,16,05,11,7.30
2008,05,16,05,12,7.30
2008,05,16,05,13,7.30
2008,05,16,05,14,7.20
2008,05,16,05,15,7.20
2008,05,16,05,16,7.20
2008,05,16,05,17,7.10
2008,05,16,05,18,7.10
2008,05,16,05,19,7.10
2008,05,16,05,20,7.00
2008,05,16,05,21,7.00
2008,05,16,05,22,6.90
2008,05,16,05,23,6.90
2008,05,16,05,24,6.90
2008,05,16,05,25,7.00
2008,05,16,05,26,7.00
2008,05,16,05,27,7.00
2008,05,16,05,28,7.00
2008,05,16,05,29,7.00
2008,05,16,05,30,7.00
2008,05,16,05,31,7.00
2008,05,16,05,32,7.10
2008,05,16,05,33,7.10
2008,05,16,05,34,7.10
2008,05,16,05,35,7.10
2008,05,16,05,36,7.10
2008,05,16,05,37,7.20
2008,05,16,05,38,7.20
2008,05,16,05,39,7.20
2008,05,16,05,40,7.30
2008,05,16,05,41,7.30
2008,05,16,05,42,7.40
2008,05,16,05,43,7.40
2008,05,16,05,44,7.40
2008,05,16,05,45,7.40
2008,05,16,05,46,7.40
2008,05,16,05,47,7.40
2008,05,16,05,48,7.40
2008,05,16,05,49,7.40
2008,05,16,05,50,7.40
2008,05,16,05,51,7.40
2008,05,16,05,52,7.40
2008,05,16,05,53,7.40
2008,05,16,05,54,7.40
2008,05,16,05,55,7.40
2008,05,16,05,56,7.40
2008,05,16,05,57,7.40
2008,05,16,05,58,7.50
2008,05,16,05,59,7.50
2008,05,16,06,00,7.60
2008,05,16,06,01,7.60
2008,05,16,06,02,7.60
2008,05,16,06,03,7.60
2008,05,16,06,04,7.70
2008,05,16,06,05,7.70
2008,05,16,06,06,7.70
2008,05,16,06,07,7.70
2008,05,16,06,08,7.70
2008,05,16,06,09,7.70
2008,05,16,06,10,7.70
2008,05,16,06,11,7.80
2008,05,16,06,12,7.80
2008,05,16,06,13,7.80
2008,05,16,06,14,7.80
2008,05,16,06,15,7.80
2008,05,16,06,16,7.80
2008,05,16,06,17,7.80
2008,05,16,06,18,7.80
2008,05,16,06,19,7.90
2008,05,16,06,20,7.90
2008,05,16,06,21,7.90
2008,05,16,06,22,8.00
2008,05,16,06,23,8.00
2008,05,16,06,24,8.00
2008,05,16,06,25,8.00
2008,05,16,06,26,8.00
2008,05,16,06,27,8.00
2008,05,16,06,28,8.00
2008,05,16,06,29,8.00
2008,05,16,06,30,8.00
2008,05,16,06,31,8.00
2008,05,16,06,32,7.90
2008,05,16,06,33,7.90
2008,05,16,06,34,7.90
2008,05,16,06,35,8.00
2008,05,16,06,36,8.00
2008,05,16,06,37,8.00
2008,05,16,06,38,8.10
2008,05,16,06,39,8.10
2008,05,16,06,40,8.20
2008,05,16,06,41,8.30
2008,05,16,06,42,8.40
2008,05,16,06,43,8.50
2008,05,16,06,44,8.60
2008,05,16,06,45,8.70
2008,05,16,06,46,8.80
2008,05,16,06,47,8.90
2008,05,16,06,48,9.00
2008,05,16,06,49,9.00
2008,05,16,06,50,9.00
2008,05,16,06,51,9.10
2008,05,16,06,52,9.20
2008,05,16,06,53,9.20
2008,05,16,06,54,9.20
2008,05,16,06,55,9.20
2008,05,16,06,56,9.20
2008,05,16,06,57,9.30
2008,05,16,06,58,9.30
2008,05,16,06,59,9.30
2008,05,16,07,00,9.50
2008,05,16,07,01,9.60
2008,05,16,07,02,9.70
2008,05,16,07,03,9.80
2008,05,16,07,04,10.00
2008,05,16,07,05,10.00
2008,05,16,07,06,10.10
2008,05,16,07,07,10.20
2008,05,16,07,08,10.30
2008,05,16,07,09,10.40
2008,05,16,07,10,10.40
2008,05,16,07,11,10.50
2008,05,16,07,12,10.60
2008,05,16,07,13,10.60
2008,05,16,07,14,10.60
2008,05,16,07,15,10.70
2008,05,16,07,16,10.70
2008,05,16,07,17,10.70
2008,05,16,07,18,10.80
2008,05,16,07,19,10.80
2008,05,16,07,20,10.90
2008,05,16,07,21,11.00
2008,05,16,07,22,11.20
2008,05,16,07,23,11.30
2008,05,16,07,24,11.40
2008,05,16,07,25,11.50
2008,05,16,07,26,11.80
2008,05,16,07,27,11.80
2008,05,16,07,28,12.00
2008,05,16,07,29,12.30
2008,05,16,07,30,12.50
2008,05,16,07,31,12.70
2008,05,16,07,32,13.00
2008,05,16,07,33,13.30
2008,05,16,07,34,13.60
2008,05,16,07,35,13.90
2008,05,16,07,36,14.10
2008,05,16,07,37,14.40
2008,05,16,07,38,14.60
2008,05,16,07,39,14.80
2008,05,16,07,40,15.00
2008,05,16,07,41,15.00
2008,05,16,07,42,15.10
2008,05,16,07,43,15.30
2008,05,16,07,44,15.30
2008,05,16,07,45,15.50
2008,05,16,07,46,15.50
2008,05,16,07,47,15.60
2008,05,16,07,48,15.60
2008,05,16,07,49,15.70
2008,05,16,07,50,15.70
2008,05,16,07,51,15.80
2008,05,16,07,52,15.80
2008,05,16,07,53,15.80
2008,05,16,07,54,15.80
2008,05,16,07,55,15.90
2008,05,16,07,56,15.90
2008,05,16,07,57,15.90
2008,05,16,07,58,15.90
2008,05,16,07,59,15.90
2008,05,16,08,00,16.00
2008,05,16,08,01,16.00
2008,05,16,08,02,16.10
2008,05,16,08,03,16.10
2008,05,16,08,04,16.20
2008,05,16,08,05,16.20
2008,05,16,08,06,16.20
2008,05,16,08,07,16.20
2008,05,16,08,08,16.20
2008,05,16,08,09,16.30
2008,05,16,08,10,16.30
2008,05,16,08,11,16.30
2008,05,16,08,12,16.40
2008,05,16,08,13,16.50
2008,05,16,08,14,16.50
2008,05,16,08,15,16.50
2008,05,16,08,16,16.60
2008,05,16,08,17,16.60
2008,05,16,08,18,16.60
2008,05,16,08,19,16.70
2008,05,16,08,20,16.70
2008,05,16,08,21,16.70
2008,05,16,08,22,16.70
2008,05,16,08,23,16.70
2008,05,16,08,24,16.70
2008,05,16,08,25,16.70
2008,05,16,08,26,16.70
2008,05,16,08,27,16.80
2008,05,16,08,28,16.80
2008,05,16,08,29,16.80
2008,05,16,08,30,16.80
2008,05,16,08,31,16.80
2008,05,16,08,32,16.80
2008,05,16,08,33,16.80
2008,05,16,08,34,16.80
2008,05,16,08,35,16.80
2008,05,16,08,36,16.80
2008,05,16,08,37,16.80
2008,05,16,08,38,16.80
2008,05,16,08,39,16.90
2008,05,16,08,40,16.80
2008,05,16,08,41,16.80
2008,05,16,08,42,16.80
2008,05,16,08,43,16.80
2008,05,16,08,44,16.80
2008,05,16,08,45,16.80
2008,05,16,08,46,16.80
2008,05,16,08,47,16.80
2008,05,16,08,48,16.70
2008,05,16,08,49,16.70
2008,05,16,08,50,16.80
2008,05,16,08,51,16.80
2008,05,16,08,52,16.80
2008,05,16,08,53,16.80
2008,05,16,08,54,16.80
2008,05,16,08,55,16.80
2008,05,16,08,56,16.80
2008,05,16,08,57,16.90
2008,05,16,08,58,16.90
2008,05,16,08,59,17.00
2008,05,16,09,00,17.10
2008,05,16,09,01,17.10
2008,05,16,09,02,17.10
2008,05,16,09,03,17.10
2008,05,16,09,04,17.10
2008,05,16,09,05,17.10
2008,05,16,09,06,17.20
2008,05,16,09,07,17.20
2008,05,16,09,08,17.20
2008,05,16,09,09,17.20
2008,05,16,09,10,17.10
2008,05,16,09,11,17.10
2008,05,16,09,12,17.10
2008,05,16,09,13,17.10
2008,05,16,09,14,17.20
2008,05,16,09,15,17.20
2008,05,16,09,16,17.20
2008,05,16,09,17,17.20
2008,05,16,09,18,17.20
2008,05,16,09,19,17.30
2008,05,16,09,20,17.30
2008,05,16,09,21,17.30
2008,05,16,09,22,17.30
2008,05,16,09,23,17.40
2008,05,16,09,24,17.40
2008,05,16,09,25,17.40
2008,05,16,09,26,17.50
2008,05,16,09,27,17.50
2008,05,16,09,28,17.50
2008,05,16,09,29,17.40
2008,05,16,09,30,17.40
2008,05,16,09,31,17.40
2008,05,16,09,32,17.40
2008,05,16,09,33,17.40
2008,05,16,09,34,17.40
2008,05,16,09,35,17.50
2008,05,16,09,36,17.60
2008,05,16,09,37,17.60
2008,05,16,09,38,17.70
2008,05,16,09,39,17.70
2008,05,16,09,40,17.70
2008,05,16,09,41,17.60
2008,05,16,09,42,17.70
2008,05,16,09,43,17.70
2008,05,16,09,44,17.70
2008,05,16,09,45,17.80
2008,05,16,09,46,17.80
2008,05,16,09,47,17.80
2008,05,16,09,48,17.80
2008,05,16,09,49,17.90
2008,05,16,09,50,17.90
2008,05,16,09,51,18.00
2008,05,16,09,52,18.00
2008,05,16,09,53,18.00
2008,05,16,09,54,18.10
2008,05,16,09,55,18.10
2008,05,16,09,56,18.10
2008,05,16,09,57,18.10
2008,05,16,09,58,18.00
2008,05,16,09,59,18.10
2008,05,16,10,00,18.00
2008,05,16,10,01,18.00
2008,05,16,10,02,18.00
2008,05,16,10,03,18.00
2008,05,16,10,04,18.00
2008,05,16,10,05,18.10
2008,05,16,10,06,18.00
2008,05,16,10,07,17.90
2008,05,16,10,08,17.90
2008,05,16,10,09,17.90
2008,05,16,10,10,17.90
2008,05,16,10,11,17.80
2008,05,16,10,12,17.80
2008,05,16,10,13,17.80
2008,05,16,10,14,17.70
2008,05,16,10,15,17.70
2008,05,16,10,16,17.70
2008,05,16,10,17,17.70
2008,05,16,10,18,17.80
2008,05,16,10,19,17.80
2008,05,16,10,20,17.80
2008,05,16,10,21,17.80
2008,05,16,10,22,17.80
2008,05,16,10,23,17.90
2008,05,16,10,24,18.00
2008,05,16,10,25,18.00
2008,05,16,10,26,18.00
2008,05,16,10,27,18.10
2008,05,16,10,28,18.10
2008,05,16,10,29,18.10
2008,05,16,10,30,18.20
2008,05,16,10,31,18.20
2008,05,16,10,32,18.20
2008,05,16,10,33,18.10
2008,05,16,10,34,18.10
2008,05,16,10,35,18.10
2008,05,16,10,36,18.20
2008,05,16,10,37,18.20
2008,05,16,10,38,18.20
2008,05,16,10,39,18.20
2008,05,16,10,40,18.20
2008,05,16,10,41,18.10
2008,05,16,10,42,18.10
2008,05,16,10,43,18.10
2008,05,16,10,44,17.90
2008,05,16,10,45,18.00
2008,05,16,10,46,18.00
2008,05,16,10,47,18.10
2008,05,16,10,48,18.10
2008,05,16,10,49,18.10
2008,05,16,10,50,18.20
2008,05,16,10,51,18.30
2008,05,16,10,52,18.30
2008,05,16,10,53,18.40
2008,05,16,10,54,18.40
2008,05,16,10,55,18.50
2008,05,16,10,56,18.60
2008,05,16,10,57,18.60
2008,05,16,10,58,18.70
2008,05,16,10,59,18.70
2008,05,16,11,00,18.80
2008,05,16,11,01,18.80
2008,05,16,11,02,18.90
2008,05,16,11,03,18.90
2008,05,16,11,04,18.90
2008,05,16,11,05,19.00
2008,05,16,11,06,19.00
2008,05,16,11,07,19.10
2008,05,16,11,08,19.20
2008,05,16,11,09,19.40
2008,05,16,11,10,19.50
2008,05,16,11,11,19.60
2008,05,16,11,12,19.70
2008,05,16,11,13,19.80
2008,05,16,11,14,19.90
2008,05,16,11,15,20.00
2008,05,16,11,16,20.00
2008,05,16,11,17,20.10
2008,05,16,11,18,20.00
2008,05,16,11,19,20.00
2008,05,16,11,20,20.00
2008,05,16,11,21,20.10
2008,05,16,11,22,20.10
2008,05,16,11,23,20.00
2008,05,16,11,24,20.00
2008,05,16,11,25,19.90
2008,05,16,11,26,19.90
2008,05,16,11,27,19.90
2008,05,16,11,28,19.90
2008,05,16,11,29,19.90
2008,05,16,11,30,20.00
2008,05,16,11,31,20.00
2008,05,16,11,32,20.10
2008,05,16,11,33,20.10
2008,05,16,11,34,20.10
2008,05,16,11,35,20.20
2008,05,16,11,36,20.10
2008,05,16,11,37,20.20
2008,05,16,11,38,20.20
2008,05,16,11,39,20.30
2008,05,16,11,40,20.30
2008,05,16,11,41,20.30
2008,05,16,11,42,20.30
2008,05,16,11,43,20.30
2008,05,16,11,44,20.40
2008,05,16,11,45,20.30
2008,05,16,11,46,20.40
2008,05,16,11,47,20.30
2008,05,16,11,48,20.30
2008,05,16,11,49,20.30
2008,05,16,11,50,20.30
2008,05,16,11,51,20.20
2008,05,16,11,52,20.20
2008,05,16,11,53,20.30
2008,05,16,11,54,20.40
2008,05,16,11,55,20.50
2008,05,16,11,56,20.60
2008,05,16,11,57,20.70
2008,05,16,11,58,20.70
2008,05,16,11,59,20.70
2008,05,16,12,00,20.70
2008,05,16,12,01,20.70
2008,05,16,12,02,20.60
2008,05,16,12,03,20.70
2008,05,16,12,04,20.70
2008,05,16,12,05,20.70
2008,05,16,12,06,20.80
2008,05,16,12,07,20.80
2008,05,16,12,08,21.00
2008,05,16,12,09,21.00
2008,05,16,12,10,21.00
2008,05,16,12,11,21.00
2008,05,16,12,12,21.10
2008,05,16,12,13,21.00
2008,05,16,12,14,21.00
2008,05,16,12,15,21.10
2008,05,16,12,16,21.10
2008,05,16,12,17,21.20
2008,05,16,12,18,21.30
2008,05,16,12,19,21.30
2008,05,16,12,20,21.30
2008,05,16,12,21,21.30
2008,05,16,12,22,21.20
2008,05,16,12,23,21.20
2008,05,16,12,24,21.30
2008,05,16,12,25,21.30
2008,05,16,12,26,21.30
2008,05,16,12,27,21.30
2008,05,16,12,28,21.30
2008,05,16,12,29,21.40
2008,05,16,12,30,21.40
2008,05,16,12,31,21.40
2008,05,16,12,32,21.40
2008,05,16,12,33,21.40
2008,05,16,12,34,21.40
2008,05,16,12,35,21.50
2008,05,16,12,36,21.50
2008,05,16,12,37,21.60
2008,05,16,12,38,21.60
2008,05,16,12,39,21.50
2008,05,16,12,40,21.50
2008,05,16,12,41,21.60
2008,05,16,12,42,21.60
2008,05,16,12,43,21.60
2008,05,16,12,44,21.70
2008,05,16,12,45,21.70
2008,05,16,12,46,21.80
2008,05,16,12,47,21.80
2008,05,16,12,48,21.80
2008,05,16,12,49,21.80
2008,05,16,12,50,21.80
2008,05,16,12,51,21.80
2008,05,16,12,52,21.80
2008,05,16,12,53,21.80
2008,05,16,12,54,21.80
2008,05,16,12,55,21.80
2008,05,16,12,56,21.70
2008,05,16,12,57,21.60
2008,05,16,12,58,21.60
2008,05,16,12,59,21.60
2008,05,16,13,00,21.70
2008,05,16,13,01,21.70
2008,05,16,13,02,21.80
2008,05,16,13,03,21.80
2008,05,16,13,04,21.80
2008,05,16,13,05,21.90
2008,05,16,13,06,21.90
2008,05,16,13,07,22.00
2008,05,16,13,08,22.00
2008,05,16,13,09,22.00
2008,05,16,13,10,22.00
2008,05,16,13,11,22.00
2008,05,16,13,12,21.90
2008,05,16,13,13,21.90
2008,05,16,13,14,21.90
2008,05,16,13,15,21.90
2008,05,16,13,16,21.90
2008,05,16,13,17,21.90
2008,05,16,13,18,21.80
2008,05,16,13,19,21.80
2008,05,16,13,20,21.80
2008,05,16,13,21,21.70
2008,05,16,13,22,21.60
2008,05,16,13,23,21.50
2008,05,16,13,24,21.50
2008,05,16,13,25,21.40
2008,05,16,13,26,21.40
2008,05,16,13,27,21.50
2008,05,16,13,28,21.50
2008,05,16,13,29,21.60
2008,05,16,13,30,21.70
2008,05,16,13,31,21.70
2008,05,16,13,32,21.80
2008,05,16,13,33,21.80
2008,05,16,13,34,21.80
2008,05,16,13,35,21.80
2008,05,16,13,36,21.80
2008,05,16,13,37,21.90
2008,05,16,13,38,21.90
2008,05,16,13,39,21.90
2008,05,16,13,40,22.00
2008,05,16,13,41,22.00
2008,05,16,13,42,22.00
2008,05,16,13,43,22.00
2008,05,16,13,44,21.90
2008,05,16,13,45,21.80
2008,05,16,13,46,21.80
2008,05,16,13,47,21.80
2008,05,16,13,48,21.80
2008,05,16,13,49,21.80
2008,05,16,13,50,21.80
2008,05,16,13,51,21.80
2008,05,16,13,52,21.80
2008,05,16,13,53,21.80
2008,05,16,13,54,21.90
2008,05,16,13,55,21.90
2008,05,16,13,56,22.00
2008,05,16,13,57,22.00
2008,05,16,13,58,21.90
2008,05,16,13,59,21.90
2008,05,16,14,00,21.90
2008,05,16,14,01,21.90
2008,05,16,14,02,21.80
2008,05,16,14,03,21.80
2008,05,16,14,04,21.80
2008,05,16,14,05,21.80
2008,05,16,14,06,21.70
2008,05,16,14,07,21.70
2008,05,16,14,08,21.70
2008,05,16,14,09,21.70
2008,05,16,14,10,21.70
2008,05,16,14,11,21.70
2008,05,16,14,12,21.80
2008,05,16,14,13,21.80
2008,05,16,14,14,21.90
2008,05,16,14,15,22.00
2008,05,16,14,16,22.10
2008,05,16,14,17,22.20
2008,05,16,14,18,22.20
2008,05,16,14,19,22.30
2008,05,16,14,20,22.40
2008,05,16,14,21,22.50
2008,05,16,14,22,22.60
2008,05,16,14,23,22.70
2008,05,16,14,24,22.70
2008,05,16,14,25,22.80
2008,05,16,14,26,22.80
2008,05,16,14,27,22.90
2008,05,16,14,28,22.90
2008,05,16,14,29,23.00
2008,05,16,14,30,23.00
2008,05,16,14,31,23.10
2008,05,16,14,32,23.10
2008,05,16,14,33,23.20
2008,05,16,14,34,23.30
2008,05,16,14,35,23.20
2008,05,16,14,36,23.20
2008,05,16,14,37,23.20
2008,05,16,14,38,23.20
2008,05,16,14,39,23.20
2008,05,16,14,40,23.30
2008,05,16,14,41,23.40
2008,05,16,14,42,23.50
2008,05,16,14,43,23.60
2008,05,16,14,44,23.60
2008,05,16,14,45,23.70
2008,05,16,14,46,23.70
2008,05,16,14,47,23.70
2008,05,16,14,48,23.80
2008,05,16,14,49,23.80
2008,05,16,14,50,23.80
2008,05,16,14,51,23.90
2008,05,16,14,52,23.90
2008,05,16,14,53,23.90
2008,05,16,14,54,23.90
2008,05,16,14,55,23.80
2008,05,16,14,56,23.80
2008,05,16,14,57,23.80
2008,05,16,14,58,23.70
2008,05,16,14,59,23.70
2008,05,16,15,00,23.70
2008,05,16,15,01,23.70
2008,05,16,15,02,23.70
2008,05,16,15,03,23.70
2008,05,16,15,04,23.70
2008,05,16,15,05,23.70
2008,05,16,15,06,23.80
2008,05,16,15,07,23.80
2008,05,16,15,08,23.90
2008,05,16,15,09,23.90
2008,05,16,15,10,23.80
2008,05,16,15,11,23.80
2008,05,16,15,12,23.80
2008,05,16,15,13,23.80
2008,05,16,15,14,23.80
2008,05,16,15,15,23.80
2008,05,16,15,16,23.80
2008,05,16,15,17,23.90
2008,05,16,15,18,23.90
2008,05,16,15,19,23.90
2008,05,16,15,20,24.00
2008,05,16,15,21,24.00
2008,05,16,15,22,24.00
2008,05,16,15,23,24.00
2008,05,16,15,24,24.00
2008,05,16,15,25,24.10
2008,05,16,15,26,24.10
2008,05,16,15,27,24.20
2008,05,16,15,28,24.20
2008,05,16,15,29,24.20
2008,05,16,15,30,24.30
2008,05,16,15,31,24.40
2008,05,16,15,32,24.40
2008,05,16,15,33,24.50
2008,05,16,15,34,24.60
2008,05,16,15,35,24.60
2008,05,16,15,36,24.50
2008,05,16,15,37,24.50
2008,05,16,15,38,24.60
2008,05,16,15,39,24.60
2008,05,16,15,40,24.70
2008,05,16,15,41,24.60
2008,05,16,15,42,24.60
2008,05,16,15,43,24.70
2008,05,16,15,44,24.80
2008,05,16,15,45,24.80
2008,05,16,15,46,24.90
2008,05,16,15,47,25.10
2008,05,16,15,48,25.20
2008,05,16,15,49,25.20
2008,05,16,15,50,25.20
2008,05,16,15,51,25.20
2008,05,16,15,52,25.20
2008,05,16,15,53,25.20
2008,05,16,15,54,25.20
2008,05,16,15,55,25.20
2008,05,16,15,56,25.10
2008,05,16,15,57,25.10
2008,05,16,15,58,25.10
2008,05,16,15,59,25.10
2008,05,16,16,00,25.10
2008,05,16,16,01,25.10
2008,05,16,16,02,25.10
2008,05,16,16,03,25.10
2008,05,16,16,04,25.20
2008,05,16,16,05,25.20
2008,05,16,16,06,25.20
2008,05,16,16,07,25.20
2008,05,16,16,08,25.20
2008,05,16,16,09,25.20
2008,05,16,16,10,25.20
2008,05,16,16,11,25.20
2008,05,16,16,12,25.30
2008,05,16,16,13,25.30
2008,05,16,16,14,25.20
2008,05,16,16,15,25.20
2008,05,16,16,16,25.10
2008,05,16,16,17,25.10
2008,05,16,16,18,25.10
2008,05,16,16,19,25.10
2008,05,16,16,20,25.10
2008,05,16,16,21,25.10
2008,05,16,16,22,25.10
2008,05,16,16,23,25.20
2008,05,16,16,24,25.30
2008,05,16,16,25,25.30
2008,05,16,16,26,25.40
2008,05,16,16,27,25.50
2008,05,16,16,28,25.50
2008,05,16,16,29,25.50
2008,05,16,16,30,25.50
2008,05,16,16,31,25.40
2008,05,16,16,32,25.40
2008,05,16,16,33,25.40
2008,05,16,16,34,25.40
2008,05,16,16,35,25.40
2008,05,16,16,36,25.30
2008,05,16,16,37,25.30
2008,05,16,16,38,25.30
2008,05,16,16,39,25.40
2008,05,16,16,40,25.40
2008,05,16,16,41,25.40
2008,05,16,16,42,25.50
2008,05,16,16,43,25.50
2008,05,16,16,44,25.50
2008,05,16,16,45,25.50
2008,05,16,16,46,25.60
2008,05,16,16,47,25.60
2008,05,16,16,48,25.70
2008,05,16,16,49,25.70
2008,05,16,16,50,25.70
2008,05,16,16,51,25.70
2008,05,16,16,52,25.70
2008,05,16,16,53,25.70
2008,05,16,16,54,25.60
2008,05,16,16,55,25.60
2008,05,16,16,56,25.60
2008,05,16,16,57,25.60
2008,05,16,16,58,25.60
2008,05,16,16,59,25.60
2008,05,16,17,00,25.60
2008,05,16,17,01,25.60
2008,05,16,17,02,25.60
2008,05,16,17,03,25.60
2008,05,16,17,04,25.70
2008,05,16,17,05,25.80
2008,05,16,17,06,25.80
2008,05,16,17,07,25.80
2008,05,16,17,08,25.90
2008,05,16,17,09,25.90
2008,05,16,17,10,25.90
2008,05,16,17,11,25.90
2008,05,16,17,12,25.90
2008,05,16,17,13,25.90
2008,05,16,17,14,25.90
2008,05,16,17,15,25.90
2008,05,16,17,16,25.90
2008,05,16,17,17,25.90
2008,05,16,17,18,26.00
2008,05,16,17,19,26.00
2008,05,16,17,20,26.00
2008,05,16,17,21,26.10
2008,05,16,17,22,26.10
2008,05,16,17,23,26.20
2008,05,16,17,24,26.20
2008,05,16,17,25,26.20
2008,05,16,17,26,26.20
2008,05,16,17,27,26.20
2008,05,16,17,28,26.20
2008,05,16,17,29,26.20
2008,05,16,17,30,26.20
2008,05,16,17,31,26.20
2008,05,16,17,32,26.20
2008,05,16,17,33,26.20
2008,05,16,17,34,26.10
2008,05,16,17,35,26.10
2008,05,16,17,36,26.10
2008,05,16,17,37,26.10